User: anonymous   Login
Location: Melbourne
(37.8170°S, 144.9670°E)
Time: 22:17:32
(UTC+11:00)
Language:

Cosmos 1656 Rocket - Orbit

View from above orbital plane
View from above orbital plane
View from above satellite
View from above satellite

Ground track
Ground track

The orbit data is extracted from the following two-line orbital elements,

1 15772U 85042D   17057.84622494 -.00000013  00000-0  15627-4 0  9990
2 15772  71.1073 208.5274 0036898 217.3836 249.3948 14.21195640645776
Epoch (UTC): 26 February 2017 20:18:33
Eccentricity: 0.0036898
inclination: 71.1073°
perigee height: 795 km
apogee height: 848 km
right ascension of ascending node: 208.5274°
argument of perigee: 217.3836°
revolutions per day: 14.21195640
mean anomaly at epoch: 249.3948°
orbit number at epoch: 64577

The dashed part of the orbit path shows where the satellite is in the earth's shadow,  

DLR